#timestamp,LO_Frequency,Hit,StdDev 
1540036815.7,286047002.4,N
1540036835.5,286046999.7,N
1540036855.4,286046999.9,N
1540036875.2,286047002.0,N
1540036895.1,286047002.1,N
1540036896.0,286047002.1,N
1540036915.8,286046999.8,N
1540036935.6,286047000.0,N
1540036955.5,286047002.0,N
1540036975.3,286047002.4,N
1540036995.1,286047000.4,N
1540037015.9,286047001.0,N
1540037035.7,286047000.3,N
1540037055.6,286047001.0,N
1540037075.4,286047001.6,N
1540037095.2,286047000.0,N
1540037115.1,286046999.7,N
1540037116.0,286046999.7,N
1540037135.8,286047002.8,N
1540037155.6,286047002.4,N
1540037175.5,286047002.8,N
1540037195.3,286047002.6,N
1540037215.2,286047000.3,N
1540037235.9,286047000.4,N
1540037255.7,286047000.5,N
1540037275.6,286046999.8,N
1540037295.4,286047000.0,N
1540037315.2,286047000.8,N
1540037335.1,286047001.1,N
1540037336.0,286047001.1,N
1540037355.8,286047000.2,N
1540037375.7,286047000.5,N
1540037395.5,286047000.7,N
1540037415.3,286047000.4,N
1540037435.2,286047000.4,N
1540037455.0,286047000.2,N
1540037455.9,286047000.2,N
1540037475.8,286047000.2,N
1540037495.6,286047002.5,N
1540037515.4,286047002.6,N
1540037535.3,286047001.8,N
1540037555.1,286047001.6,N
1540037575.9,286047002.0,N
1540037595.7,286047002.1,N
1540037615.5,286047003.8,Y
1540037635.4,286047002.8,P
1540037655.2,286046999.8,N
1540037675.1,286046998.2,N
1540037676.0,286046998.2,N
1540037695.8,286046998.5,N
1540037715.6,286047000.8,N
1540037735.5,286046999.4,N
1540037755.3,286046999.0,N
1540037775.2,286047000.7,N
1540037795.9,286046998.6,N
1540037815.7,286046999.3,N
1540037835.6,286046999.0,N
1540037855.4,286046998.4,N
1540037875.3,286047000.1,N
1540037895.1,286047002.6,N
1540037896.0,286047002.6,N
1540037915.8,286047002.3,N
1540037935.7,286046999.9,N
1540037955.5,286047000.4,N
1540037975.4,286046998.3,N
1540037995.2,286047004.1,N
1540038015.0,286047007.4,Y
1540038015.9,286047007.4,P
1540038035.8,286047009.3,N
1540038055.6,286047016.4,P
1540038075.4,286047021.3,Y
1540038095.3,286047014.6,P
1540038115.1,286047016.4,P
1540038135.9,286047020.0,P
1540038155.7,286047021.2,Y
1540038175.5,286047005.1,P
1540038195.4,286047005.6,N
1540038215.2,286047003.0,N
1540038235.0,286047014.6,Y
1540038236.0,286047014.6,P
1540038255.8,286047007.0,N
1540038275.6,286047002.4,N
1540038295.5,286046996.7,N
1540038315.3,286046991.7,N
1540038335.1,286046988.7,N
1540038355.9,286046985.6,N
1540038375.7,286046984.0,N
1540038395.5,286046981.0,N
1540038415.4,286046979.7,N
1540038435.2,286046977.8,N
1540038455.1,286046978.3,N
1540038456.0,286046978.3,N
1540038475.8,286046976.5,N
1540038495.6,286046976.9,N
1540038515.5,286046974.9,N
1540038535.3,286046973.7,N
1540038555.1,286046973.6,N
1540038575.9,286046971.5,N
1540038595.7,286046971.0,N
1540038615.6,286046974.0,N
1540038635.4,286046971.2,N
1540038655.2,286046970.9,N
1540038675.1,286046972.1,N
1540038676.0,286046972.1,N
1540038695.8,286046971.9,N
1540038715.6,286046971.9,N
1540038735.5,286046973.0,N
1540038755.3,286046983.6,N
1540038775.2,286046994.2,N
1540038795.9,286046990.6,N
1540038815.7,286046989.7,N
1540038835.6,286046985.7,N
1540038855.4,286046984.3,N
1540038875.2,286046983.4,N
1540038895.1,286046983.3,N
1540038896.0,286046983.3,N
1540038915.8,286046980.8,N
1540038935.7,286046978.0,Y
1540038955.5,286046999.2,P
1540038975.3,286046997.9,N
1540038995.2,286046998.0,N
1540039015.0,286046995.8,N
1540039015.9,286046995.8,N
1540039035.7,286046993.3,N
1540039055.6,286046994.1,N
1540039075.4,286046993.7,N
1540039095.3,286046994.6,N
1540039115.1,286046991.8,N
1540039116.0,286046991.8,N
1540039135.8,286046991.7,N
1540039155.7,286046993.1,N
1540039175.5,286046991.1,N
1540039195.3,286046990.3,N
1540039215.2,286046990.4,N
1540039235.0,286046990.8,N
1540039235.9,286046990.8,N
1540039255.8,286046991.4,N
1540039275.6,286046990.3,N
1540039295.4,286046990.8,N
1540039315.3,286046989.2,N
1540039335.1,286046989.4,N
1540039355.8,286046988.7,N
1540039375.7,286046989.3,N
1540039395.5,286046989.5,N
1540039415.4,286046991.6,N
1540039435.2,286046989.0,N
1540039455.0,286046989.3,N
1540039455.9,286046989.3,N
1540039475.8,286046989.2,Y
1540039495.6,286046995.0,P
1540039515.4,286046995.1,P
1540039535.3,286046997.3,N
1540039555.1,286046997.1,N
1540039575.9,286046997.8,N
1540039595.7,286046997.4,N
1540039615.5,286046997.6,N
1540039635.4,286046997.9,N
1540039655.2,286046996.8,N
1540039675.0,286046996.7,N
1540039675.9,286046996.7,N
1540039695.8,286046999.5,N
1540039715.6,286046997.1,N
1540039735.5,286046995.3,N
1540039755.3,286046997.5,N
1540039775.1,286046997.9,N
1540039795.9,286046997.8,N
1540039815.7,286046998.0,N
1540039835.5,286046996.3,N
1540039855.4,286046996.0,N
1540039875.2,286046995.4,Y
1540039895.1,286046998.4,P
1540039896.0,286046998.4,N
1540039915.8,286047001.0,N
1540039935.6,286047001.0,N
1540039955.5,286047000.5,N
1540039975.3,286047000.0,N
1540039995.2,286047000.7,N
1540040015.9,286047001.0,N
1540040035.7,286047000.9,N
1540040055.6,286047001.2,N
1540040075.4,286047000.4,N
1540040095.2,286046998.2,N
1540040115.1,286047000.1,N
1540040116.0,286047000.1,N
1540040135.8,286047002.7,N
1540040155.7,286047001.9,N
1540040175.5,286047001.6,N
1540040195.3,286047001.9,N
1540040215.2,286047001.7,N
1540040235.0,286047003.7,N
1540040235.9,286047003.7,N
1540040255.7,286047002.8,N
1540040275.6,286047001.9,N
1540040295.4,286047001.8,N
1540040315.3,286047003.2,N
1540040335.1,286047005.6,Y
1540040336.0,286047005.6,P
1540040355.8,286047003.1,N
1540040375.7,286047003.4,N
1540040395.5,286047003.4,N
